Weather History for KHFF - December, 2012

Change the Weather History Date:

Thursday, December 13, 2012

  Actual Average Record
Temperature  
Mean Temperature 42 °F -  
Max Temperature 52 °F 55 °F 76 °F (2007)
Min Temperature 32 °F 34 °F 19 °F (2013)
Degree Days  
Heating Degree Days 22    
Moisture  
Dew Point 36 °F    
Average Humidity 82    
Maximum Humidity 100    
Minimum Humidity 57    
Precipitation  
Precipitation 0.04 in - - ()
Sea Level Pressure  
Sea Level Pressure 30.35 in    
Wind  
Wind Speed 12 mph (North)    
Max Wind Speed 16 mph    
Max Gust Speed 25 mph    
Visibility 10 miles    
Events Rain    
Averages and records for this station are not official NWS values.
T = Trace of Precipitation, MM = Missing Value Source: NWS Daily Summary

Daily Weather History Graph

Daily Weather History Graph

Search for Another Location

Airport or City:

Trip Planner

Search our weather history database for the weather conditions in past years. The results will help you decide how hot, cold, wet, or windy it might be!

Date:

Astronomy

Dec. 13, 2012 Rise Set
Actual Time 7:17 AM EST 5:07 PM EST
Civil Twilight 6:49 AM EST 5:35 PM EST
Nautical Twilight 6:17 AM EST 6:07 PM EST
Astronomical Twilight 5:47 AM EST 6:37 PM EST
Moon 7:25 AM EST (12/13) 5:46 PM EST (12/13)
Length of Visible Light 10h 45m
Length of Day
9h 49m
New Moon, 0% of the Moon is Illuminated
Dec 13
New Moon
Dec 20
First Quarter
Dec 28
Full
Jan 4
Last Quarter
Jan 11
New

Hourly Weather History & Observations

Time (EST) Temp. Windchill Dew Point Humidity Pressure Visibility Wind Dir Wind Speed Gust Speed Precip Events Conditions
12:42 AM 39.2 °F 30.8 °F 37.4 °F 93% 30.29 in 10.0 mi NNE 15.0 mph 23.0 mph N/A Rain Light Rain Showers
12:55 AM 38.8 °F 32.1 °F 37.4 °F 95% 30.30 in 10.0 mi North 10.4 mph - 0.00 in Rain Light Rain Showers
1:18 AM 39.2 °F 31.6 °F 37.4 °F 93% 30.30 in 10.0 mi North 12.7 mph 20.7 mph N/A Rain Rain Showers
1:55 AM 38.5 °F 30.7 °F 37.2 °F 95% 30.30 in 10.0 mi North 12.7 mph 23.0 mph 0.04 in Rain Light Rain
2:55 AM 38.3 °F 30.1 °F 36.9 °F 95% 30.31 in 10.0 mi North 13.8 mph 20.7 mph N/A Rain Light Rain
2:57 AM 39.2 °F 30.8 °F 37.4 °F 93% 30.31 in 10.0 mi NNE 15.0 mph 20.7 mph N/A Rain Light Rain
4:09 AM 37.4 °F - 37.4 °F 100% 30.27 in 10.0 mi North - - N/A   Mostly Cloudy
5:17 AM 37.4 °F 28.2 °F 35.6 °F 93% 30.29 in 10.0 mi NNE 16.1 mph 25.3 mph N/A   Mostly Cloudy
6:55 AM 38.5 °F 31.6 °F 36.1 °F 91% 30.35 in 10.0 mi NNW 10.4 mph - N/A   Mostly Cloudy
7:07 AM 39.2 °F 32.5 °F 35.6 °F 87% 30.36 in 10.0 mi North 10.4 mph - N/A   Mostly Cloudy
7:55 AM 38.8 °F 31.6 °F 35.2 °F 87% 30.36 in 10.0 mi North 11.5 mph 25.3 mph N/A   Overcast
8:37 AM 39.2 °F 32.0 °F 33.8 °F 81% 30.38 in 10.0 mi North 11.5 mph 23.0 mph N/A   Overcast
8:55 AM 40.5 °F 32.5 °F 34.2 °F 78% 30.38 in 10.0 mi North 15.0 mph 25.3 mph N/A   Overcast
9:07 AM 41.0 °F 33.9 °F 33.8 °F 76% 30.38 in 10.0 mi North 12.7 mph 23.0 mph N/A   Overcast
9:32 AM 41.0 °F 33.1 °F 33.8 °F 76% 30.39 in 10.0 mi North 15.0 mph 20.7 mph N/A   Overcast
9:55 AM 42.1 °F 34.9 °F 34.0 °F 73% 30.39 in 10.0 mi North 13.8 mph - N/A   Overcast
10:02 AM 42.8 °F 35.4 °F 33.8 °F 70% 30.39 in 10.0 mi North 15.0 mph 19.6 mph N/A   Overcast
10:55 AM 45.0 °F 38.9 °F 34.0 °F 65% 30.40 in 10.0 mi North 12.7 mph - N/A   Mostly Cloudy
11:55 AM 47.7 °F - 35.6 °F 63% 30.38 in 10.0 mi NNE 13.8 mph 20.7 mph N/A   Mostly Cloudy
12:55 PM 48.9 °F - 36.9 °F 63% 30.36 in 10.0 mi NE 12.7 mph - N/A   Mostly Cloudy
1:55 PM 51.8 °F - 37.2 °F 58% 30.34 in 10.0 mi North 13.8 mph 17.3 mph N/A   Clear
2:55 PM 52.5 °F - 37.6 °F 57% 30.33 in 10.0 mi North 8.1 mph - N/A   Clear
3:55 PM 52.0 °F - 37.2 °F 57% 30.32 in 10.0 mi North 11.5 mph 18.4 mph N/A   Clear
4:55 PM 47.8 °F - 36.5 °F 65% 30.34 in 10.0 mi North 5.8 mph - N/A   Clear
7:55 PM 36.1 °F 32.3 °F 34.9 °F 95% 30.38 in 10.0 mi NNW 4.6 mph - N/A   Clear
8:55 PM 35.4 °F 32.6 °F 34.7 °F 97% 30.38 in 10.0 mi NNW 3.5 mph - N/A   Clear
9:55 PM 33.8 °F 30.8 °F 33.8 °F 100% 30.38 in 6.0 mi North 3.5 mph - N/A   Clear
10:55 PM 35.6 °F 31.7 °F 33.8 °F 93% 30.37 in 10.0 mi North 4.6 mph - N/A   Clear
11:55 PM 32.4 °F 29.1 °F 31.8 °F 98% 30.38 in 10.0 mi NNW 3.5 mph - N/A   Clear